Regional Weather Roundup
Issued by NWS Charleston, SC

Current Version | Previous Version | Graphics & Text | Print | Product List | Glossary On
Versions: 1 2 3 4 5 6 7 8 9 10 11 12 13 14 15 16 17 18 19 20 21 22 23 24 25 26 27 28 29 30 31 32 33 34 35 36 37 38 39 40 41 42 43 44 45 46 47 48 49 50
000
ASUS42 KCHS 050026
RWRCHS

REGIONAL WEATHER ROUNDUP
NATIONAL WEATHER SERVICE CHARLESTON SC
700 PM EST WED MAR 04 2015

NOTE: "FAIR" INDICATES FEW OR NO CLOUDS BELOW 12,000 FEET WITH NO
SIGNIFICANT WEATHER AND/OR OBSTRUCTIONS TO VISIBILITY.

NOT ALL STATIONS ARE QUALITY CONTROLLED BY THE NATIONAL
WEATHER SERVICE. USE DATA WITH CAUTION...ESPECIALLY
DEWPOINT OBSERVATIONS.

SCZ027-030-031-034>040-042>050-050100-
...SOUTHEAST SOUTH CAROLINA...

CITY           SKY/WX    TMP DP  RH WIND       PRES   REMARKS
N CHARLESTON   PTCLDY    67  62  84 S15       30.01R
6HR MIN TEMP:  67; 6HR MAX TEMP:  81;

WATERFRONT PRK   N/A     64 N/A N/A SW13G23     N/A
MOUNT PLEASANT FAIR      66  64  94 S14G23    30.01S
PINOPOLIS      NOT AVBL
MONCKS CORNER  FAIR      70  63  78 S12G17    29.98S
SUMMERVILLE    MOCLDY    70  63  78 S9G16     30.00R
BEAUFORT MCAS  MOCLDY    67  62  84 S10G18    30.00R
6HR MIN TEMP:  67; 6HR MAX TEMP:  82;

BEAUFORT ARPT  FAIR      64  63  94 S9        30.01S
HILTON HEAD IS CLEAR     64  63  94 S9G18     30.02R
WALTERBORO     CLOUDY    72  64  78 S12       29.99S
ALLENDALE      MOCLDY    75  59  57 CALM      29.96S

...SOUTHERN MIDLANDS AND PEE DEE...

CITY           SKY/WX    TMP DP  RH WIND       PRES   REMARKS
GEORGETOWN     NOT AVBL
KINGSTREE      NOT AVBL
ORANGEBURG     CLEAR     72  55  55 SW9       29.95S
6HR MIN TEMP:  72; 6HR MAX TEMP:  82;

BARNWELL       FAIR      73  57  56 SW6       29.96S
AIKEN          FAIR      72  59  64 S7        29.98S
MANNING        FAIR      72  54  53 S7        29.96R
COLUMBIA       FAIR      73  56  54 S5        29.93R
6HR MIN TEMP:  73; 6HR MAX TEMP:  81;

SUMTER         NOT AVBL
FLORENCE       PTCLDY    73  57  57 SW6       29.93R
6HR MIN TEMP:  72; 6HR MAX TEMP:  81;

MYRTLE BEACH   CLEAR     66  59  77 S14       30.00R
N MYRTLE BEACH PTCLDY    57  56  96 SW18      29.97S
6HR MIN TEMP:  57; 6HR MAX TEMP:  65;


$$

GAZ063-065-086>088-099>101-113>116-118-119-134>141-150-050100-
...SOUTHEAST GEORGIA...

CITY           SKY/WX    TMP DP  RH WIND       PRES   REMARKS
SAVANNAH ARPT  MOCLDY    70  62  76 S13       29.99S
6HR MIN TEMP:  70; 6HR MAX TEMP:  84;

HUNTER AAF     CLEAR     68  64  86 S9        29.98S
6HR MIN TEMP:  68; 6HR MAX TEMP:  85;

FORT STEWART   CLEAR     76  58  53 S3        29.97S
6HR MIN TEMP:  76; 6HR MAX TEMP:  83;

STATESBORO     CLEAR     69  60  72 S3        29.97S
SYLVANIA       PTCLDY    74  60  63 CALM      29.99R
CLAXTON        FAIR      68  61  77 CALM      29.99R

...CSRA...CENTRAL AND FAR SOUTHEAST GEORGIA...

CITY           SKY/WX    TMP DP  RH WIND       PRES   REMARKS
THOMSON        PTCLDY    73  63  70 SW5       29.99S
AUGUSTA-BUSH   PTCLDY    72  57  59 SW7       29.94S
6HR MIN TEMP:  72; 6HR MAX TEMP:  80;

AUGUSTA-DANIEL CLEAR     75  58  55 SW6       29.95S
SWAINSBORO     FAIR      75  46  35 CALM      29.99R
VIDALIA        CLEAR     73  59  60 SW9       29.99S
EASTMAN        FAIR      72  62  72 S5        30.00S
HAZLEHURST     FAIR      76  60  58 SW6       29.98F
ALMA           CLEAR     75  58  55 SW8       30.00R
6HR MIN TEMP:  75; 6HR MAX TEMP:  83;

WAYCROSS       CLEAR     77  64  64 SW9       30.02R
JESUP          FAIR      75  63  64 SW3       30.01R
BAXLEY         FAIR      77  59  53 SW3       30.00R
BRUNSWICK      CLEAR     70  61  73 S6        30.03R
SAINT SIMONS   CLEAR     62  59  90 S12G23    30.02S
6HR MIN TEMP:  62; 6HR MAX TEMP:  71;


$$

SCZ027-028-034-036>038-045-046-048>050-GAZ119-141-050100-
...LAKE AND SUPPLEMENTAL COASTAL OBSERVATIONS...

STATION/POSITION TIME  TEMP    WIND        PRES    WAVE   SWELL
                       AIR SEA DIR/SP/G            HT/PER HT/PER/DIR
                 (UTC) (F)     (DEG/KT/KT) (MB)    (FT/S) (FT/S/D)
UPR LAKE MARION  NOT AVBL
WINYAH BAY       2345   67     210/ 13     1014.0S
LAKE MURRAY      0000   63     210/ 10/ 11 1012.9S
ACE BASIN NERRS  NOT AVBL
FORT PULASKI     0000   61 52  200/  9/ 15 1016.9R
SAPELO ISLAND    0000   64     170/  9     1016.0S

$$

ANZ835-935-AMZ111-154-330-350-352-354-370-450-454-472-050100-
...C-MAN AND BUOY OBSERVATIONS...

STATION/POSITION TIME  TEMP    WIND        PRES    WAVE   SWELL
                       AIR SEA DIR/SP/G            HT/PER HT/PER/DIR
                 (UTC) (F)     (DEG/KT/KT) (MB)    (FT/S) (FT/S/D)
BUOY 41004       2350   71 69  200/ 17/ 21 1015.8R   6/ 6   3/10
BUOY 41008       2350   61 55  180/ 16/ 17 1016.2S   3/10   2/100/10
FOLLY BEACH CMAN 0000   57     220/ 10/ 11 1016.6R
CAPERS NEARSHORE 2300   56     200/ 12/ 16   N/A
FRIPP NEARSHORE  2300   57     190/ 14/ 16 1015.6R


STATION/POSITION TIME  TEMP    WIND        PRES    WAVE   SWELL
                       AIR SEA DIR/SP/G            HT/PER HT/PER/DIR
                 (UTC) (F)     (DEG/KT/KT) (MB)    (FT/S) (FT/S/D)
5E ST. MARYS GA  2321      55                N/A     3/10
FRYING PAN BUOY  2350   68 63  210/ 17/ 21 1016.6R   5/ 7   3/130/ 8
BUOY 41025       NOT AVBL
CAPE LOOKOUT NC  0000   61     210/ 15/ 19 1015.1F
BUOY 41002       2350   73 74  210/ 19/ 21 1021.0R   5/10   3/140/10
BUOY 41010       2320   74 75  170/ 12/ 14 1020.5R
ST AUGUSTINE FL  0000   61     170/ 12/ 13 1018.0R


$$



USA.gov is the U.S. government's official web portal to all federal, state and local government web resources and services.